Date,TemperatureHighF,TemperatureAvgF,TemperatureLowF,DewpointHighF,DewpointAvgF,DewpointLowF,HumidityHigh,HumidityAvg,HumidityLow,PressureMaxIn,PressureMinIn,WindSpeedMaxMPH,WindSpeedAvgMPH,GustSpeedMaxMPH,PrecipitationSumIn
2013-1-1,23,20,18,15,13,12,80,74,63,0.00,40.00,5,4,0,0.00
2013-1-2,25,22,18,22,18,12,92,85,75,0.00,40.00,10,3,0,0.00
2013-1-3,27,24,20,23,21,16,96,86,76,0.00,40.00,10,6,0,0.00
2013-1-4,29,27,24,23,22,20,88,83,77,0.00,40.00,13,9,0,0.00
2013-1-5,34,26,16,32,25,16,99,94,84,0.00,40.00,12,5,0,0.06
2013-1-6,35,33,31,34,30,25,98,91,79,0.00,40.00,10,7,0,0.01
2013-1-7,35,32,29,29,26,25,86,80,71,0.00,40.00,18,10,0,0.00
2013-1-8,39,33,28,31,29,27,98,85,74,0.00,40.00,11,6,0,0.00
2013-1-9,42,38,32,34,29,24,83,71,52,0.00,40.00,14,10,0,0.00
2013-1-10,42,33,24,29,25,23,98,76,50,0.00,40.00,8,4,0,0.05
2013-1-11,46,41,35,46,40,33,101,99,93,0.00,40.00,11,8,0,0.20
2013-1-12,50,45,36,46,40,31,101,83,56,0.00,40.00,16,10,0,0.00
2013-1-13,34,29,24,31,28,21,99,94,87,0.00,40.00,5,1,0,0.01
2013-1-14,22,19,17,17,15,14,92,83,70,0.00,40.00,0,0,0,0.00
2013-1-15,28,23,17,19,17,15,90,78,64,0.00,40.00,8,3,0,0.01
2013-1-16,32,27,20,28,22,19,96,82,62,0.00,40.00,18,9,0,0.00
2013-1-17,31,24,19,29,15,7,90,68,55,0.00,40.00,10,5,0,0.00
2013-1-18,38,23,12,30,16,8,97,76,63,0.00,40.00,18,8,0,0.00
2013-1-19,41,39,38,35,34,31,85,79,74,0.00,40.00,17,12,0,0.00
2013-1-20,34,17,13,19,12,7,94,81,52,0.00,40.00,16,8,0,0.00
2013-1-21,14,9,2,10,5,-1,92,86,72,0.00,40.00,8,5,0,0.00
2013-1-22,7,2,-3,-1,-4,-7,88,79,59,0.00,40.00,6,3,0,0.00
2013-1-23,15,4,-5,13,1,-8,94,89,86,0.00,40.00,7,2,0,0.00
2013-1-24,14,9,-2,10,6,-4,94,85,74,0.00,40.00,4,2,0,0.00
2013-1-25,19,15,11,18,12,4,97,88,69,0.00,40.00,11,5,0,0.00
2013-1-26,27,21,17,20,18,16,97,91,76,0.00,40.00,4,1,0,0.01
2013-1-27,27,24,18,26,20,18,99,86,71,0.00,40.00,10,7,0,0.00
2013-1-28,37,34,29,37,33,29,100,97,87,0.00,40.00,7,4,0,0.06
2013-1-29,53,41,32,53,41,31,103,100,94,0.00,40.00,13,6,0,1.09
2013-1-30,48,38,26,48,32,-100,104,86,100,0.00,40.00,12,5,0,0.14
2013-1-31,22,17,14,22,17,14,104,100,98,0.00,40.00,7,6,0,0.00
2013-2-1,14,12,11,14,12,9,99,95,86,0.00,40.00,7,5,0,0.00
2013-2-2,19,13,3,14,10,1,99,89,74,0.00,40.00,6,3,0,0.00
2013-2-3,16,12,4,13,10,3,93,90,84,0.00,40.00,6,3,0,0.00
2013-2-4,19,15,11,13,11,7,97,86,63,0.00,40.00,5,1,0,0.00
2013-2-5,27,15,2,27,13,0,100,92,89,0.00,40.00,11,5,0,0.00
2013-2-6,29,22,14,21,18,14,98,87,66,0.00,40.00,6,2,0,0.03
2013-2-7,29,27,25,29,26,21,102,98,74,0.00,40.00,8,6,0,0.03
2013-2-8,31,26,21,29,25,19,102,98,87,0.00,40.00,8,6,0,0.06
2013-2-9,28,14,-1,20,11,-3,96,85,68,0.00,40.00,8,3,0,0.00
2013-2-10,36,26,16,36,24,15,100,90,82,0.00,40.00,11,7,0,0.09
2013-2-11,42,35,31,39,32,26,100,89,78,0.00,40.00,20,14,0,0.01
2013-2-12,29,27,25,23,22,20,82,79,75,0.00,40.00,8,6,0,0.00
2013-2-13,34,28,19,30,26,19,101,92,83,0.00,40.00,9,5,0,0.00
2013-2-14,37,32,29,34,31,29,101,97,89,0.00,40.00,12,7,0,0.02
2013-2-15,25,23,19,20,16,12,89,74,57,0.00,40.00,8,5,0,0.00
2013-2-16,20,16,12,15,12,10,93,84,62,0.00,40.00,5,3,0,0.01
2013-2-17,21,10,-2,10,3,-5,89,76,53,0.00,40.00,6,2,0,0.00
2013-2-18,41,28,16,40,19,8,98,69,56,0.00,40.00,13,9,0,0.11
2013-2-19,40,26,14,39,24,12,96,94,88,0.00,40.00,15,10,0,0.01
2013-2-20,22,17,14,15,12,10,92,80,71,0.00,40.00,9,8,0,0.00
2013-2-21,25,22,20,17,15,11,83,75,67,0.00,40.00,10,7,0,0.00
2013-2-22,27,23,18,27,21,13,99,93,80,0.00,40.00,15,9,0,0.00
2013-2-23,29,28,25,29,26,23,99,92,82,0.00,40.00,7,6,0,0.00
2013-2-24,38,29,25,26,24,22,98,85,53,0.00,40.00,5,3,0,0.02
2013-2-25,41,29,12,25,21,11,96,74,47,0.00,40.00,5,3,0,0.00
2013-2-26,36,29,26,31,24,20,99,79,58,0.00,40.00,18,12,0,0.00
2013-2-27,35,33,31,35,33,31,101,100,99,0.00,40.00,10,5,0,0.27
2013-2-28,35,32,28,32,28,21,99,84,71,0.00,40.00,9,6,0,0.01
2013-3-1,31,26,20,20,17,15,81,68,49,0.00,40.00,9,6,0,0.00
2013-3-2,32,22,14,14,13,10,88,70,46,0.00,40.00,7,5,0,0.00
2013-3-3,32,21,8,14,12,6,91,69,43,0.00,40.00,8,4,0,0.00
2013-3-4,35,18,5,17,11,2,91,73,46,0.00,40.00,4,2,0,0.00
2013-3-5,32,25,18,21,17,12,80,72,62,0.00,40.00,12,8,0,0.00
2013-3-6,41,32,26,28,25,21,86,74,55,0.00,40.00,12,5,0,0.00
2013-3-7,37,31,21,27,21,16,86,67,44,0.00,40.00,7,5,0,0.00
2013-3-8,38,25,14,24,18,13,94,75,48,0.00,40.00,7,3,0,0.00
2013-3-9,39,32,24,31,24,20,91,72,57,0.00,40.00,10,6,0,0.00
2013-3-10,43,41,38,42,40,31,98,94,76,0.00,40.00,7,4,0,0.31
2013-3-11,44,40,33,44,40,33,101,98,88,0.00,40.00,13,6,0,0.09
2013-3-12,33,29,26,32,27,23,100,90,77,0.00,40.00,8,5,0,0.02
2013-3-13,30,25,20,24,17,8,96,72,42,0.00,40.00,12,6,0,0.01
2013-3-14,36,26,15,20,16,13,92,67,46,0.00,40.00,10,3,0,0.00
2013-3-15,37,33,30,32,29,23,92,84,74,0.00,40.00,7,5,0,0.01
2013-3-16,35,28,23,26,22,15,96,80,47,0.00,40.00,9,7,0,0.06
2013-3-17,30,25,21,18,13,10,72,59,46,0.00,40.00,9,7,0,0.00
2013-3-18,32,25,20,31,21,13,98,84,71,0.00,40.00,12,9,0,0.02
2013-3-19,31,22,18,31,18,12,97,84,59,0.00,40.00,12,9,0,0.00
2013-3-20,23,19,13,13,11,9,91,71,59,0.00,40.00,8,4,0,0.05
2013-3-21,30,24,14,21,18,13,93,79,64,0.00,40.00,8,4,0,0.01
2013-3-22,38,30,24,20,18,17,76,64,46,0.00,40.00,7,4,0,0.00
2013-3-23,37,31,28,22,21,20,78,67,52,0.00,40.00,6,4,0,0.00
2013-3-24,35,31,27,23,22,20,77,68,56,0.00,40.00,11,7,0,0.00
2013-3-25,38,32,27,24,22,20,78,65,51,0.00,40.00,11,8,0,0.00
2013-3-26,41,34,29,30,27,24,85,75,60,0.00,40.00,8,6,0,0.02
2013-3-27,43,36,29,28,24,20,91,64,40,0.00,40.00,10,5,0,0.00
2013-3-28,47,36,26,25,22,18,88,60,31,0.00,40.00,8,4,0,0.00
2013-3-29,49,35,22,30,21,16,93,62,27,0.00,40.00,7,2,0,0.00
2013-3-30,51,37,22,31,22,-100,95,63,29,0.00,40.00,11,5,0,0.00
2013-3-31,46,41,36,40,35,29,96,82,62,0.00,40.00,9,7,0,0.05
2013-4-1,30,28,25,29,16,12,93,61,48,0.00,40.00,10,7,0,0.00
2013-4-2,36,28,18,23,14,8,92,59,31,0.00,40.00,11,5,0,0.01
2013-4-3,42,31,19,20,16,13,83,55,30,0.00,40.00,8,4,0,0.00
2013-4-4,49,37,25,23,20,18,78,54,30,0.00,40.00,15,8,0,0.00
2013-4-5,47,38,29,26,19,14,76,49,26,0.00,40.00,8,6,0,0.00
2013-4-6,54,42,32,35,22,14,63,47,32,0.00,40.00,16,10,0,0.01
2013-4-7,53,42,32,46,35,28,91,76,55,0.00,40.00,17,8,0,0.20
2013-4-8,46,38,32,46,35,28,99,89,78,0.00,40.00,10,6,0,0.33
2013-4-9,42,40,39,42,40,39,100,100,99,0.00,40.00,9,5,0,0.90
2013-4-10,42,40,36,41,36,32,100,89,78,0.00,40.00,14,10,0,0.65
2013-4-11,37,35,33,33,31,27,92,86,68,0.00,40.00,19,14,0,1.00
2013-4-12,33,33,32,31,31,31,96,92,89,0.00,40.00,15,10,0,0.14
2013-4-13,37,36,34,32,27,23,91,70,56,0.00,40.00,11,8,0,0.01
2013-4-14,44,36,27,36,31,26,95,82,71,0.00,40.00,12,6,0,0.03
2013-4-15,58,50,43,52,44,35,94,79,71,0.00,40.00,18,9,0,0.37
2013-4-16,49,43,36,44,34,30,96,72,48,0.00,40.00,8,4,0,0.19
2013-4-17,48,42,37,39,33,29,94,73,58,0.00,40.00,12,8,0,0.49
2013-4-18,56,48,41,56,47,39,99,97,88,0.00,40.00,12,7,0,1.35
2013-4-19,57,39,32,55,32,24,93,75,64,0.00,40.00,21,15,0,0.06
2013-4-20,37,31,25,22,16,12,65,55,37,0.00,40.00,10,7,0,0.00
2013-4-21,49,34,21,28,21,17,88,60,37,0.00,40.00,10,5,0,0.00
2013-4-22,63,48,34,31,29,26,74,50,25,0.00,40.00,9,6,0,0.00
2013-4-23,58,48,36,48,38,29,94,70,43,0.00,40.00,9,6,0,0.34
2013-4-24,46,38,33,33,27,19,91,66,33,0.00,40.00,10,8,0,0.01
2013-4-25,48,42,35,36,30,25,90,63,41,0.00,40.00,13,8,0,0.11
2013-4-26,63,47,31,40,32,28,93,61,32,0.00,40.00,19,9,0,0.00
2013-4-27,68,56,44,43,39,-100,85,59,35,0.00,40.00,9,5,0,0.00
2013-4-28,63,55,45,51,44,38,83,64,55,0.00,40.00,6,3,0,0.00
2013-4-29,67,55,44,52,49,42,99,82,55,0.00,40.00,11,4,0,0.00
2013-4-30,76,69,56,58,56,51,92,65,53,0.00,40.00,16,11,0,0.12
2013-5-1,81,71,60,59,55,49,84,59,34,0.00,40.00,11,7,0,0.00
2013-5-2,81,66,49,56,52,44,89,63,39,0.00,40.00,9,5,0,0.16
2013-5-3,76,59,45,55,50,43,95,74,44,0.00,40.00,9,5,0,0.01
2013-5-4,74,65,56,46,41,32,60,42,26,0.00,40.00,10,6,0,0.00
2013-5-5,74,62,52,44,38,33,57,42,26,0.00,40.00,10,6,0,0.00
2013-5-6,77,63,46,43,36,31,74,41,18,0.00,40.00,7,4,0,0.00
2013-5-7,77,62,48,47,41,36,68,49,22,0.00,40.00,7,4,0,0.00
2013-5-8,77,66,54,50,46,42,73,52,34,0.00,40.00,7,3,0,0.00
2013-5-9,77,62,48,48,44,38,90,56,27,0.00,40.00,5,2,0,0.00
2013-5-10,59,49,45,51,43,-100,97,87,64,0.00,40.00,11,7,0,0.48
2013-5-11,49,43,37,45,38,-100,96,88,64,0.00,40.00,14,7,0,0.02
2013-5-12,43,39,34,33,27,23,85,63,44,0.00,40.00,11,7,0,0.00
2013-5-13,52,40,25,31,24,19,92,59,27,0.00,40.00,7,3,0,0.00
2013-5-14,69,56,44,51,39,28,72,53,45,0.00,40.00,13,7,0,0.00
2013-5-15,75,65,57,53,47,37,72,55,27,0.00,40.00,10,5,0,0.00
2013-5-16,79,53,43,47,18,-100,94,54,21,0.00,40.00,8,3,0,0.00
2013-5-17,62,55,50,47,32,-100,70,56,30,0.00,40.00,9,7,0,0.00
2013-5-18,79,65,54,54,46,41,69,52,31,0.00,40.00,8,6,0,0.00
2013-5-19,83,71,56,60,53,46,70,54,41,0.00,40.00,9,5,0,0.00
2013-5-20,82,74,67,69,61,55,83,65,41,0.00,40.00,18,8,0,0.14
2013-5-21,75,69,61,64,61,57,97,75,62,0.00,40.00,15,9,0,0.23
2013-5-22,68,63,61,63,60,58,96,91,78,0.00,40.00,9,3,0,0.97
2013-5-23,59,51,42,58,47,34,96,86,57,0.00,40.00,9,6,0,0.73
2013-5-24,61,47,35,41,36,32,88,66,44,0.00,40.00,7,5,0,0.00
2013-5-25,64,52,38,39,35,31,90,58,29,0.00,40.00,6,3,0,0.00
2013-5-26,67,55,41,43,39,37,87,59,32,0.00,40.00,5,3,0,0.00
2013-5-27,60,54,47,48,42,37,87,64,45,0.00,40.00,10,7,0,0.00
2013-5-28,70,58,51,66,56,49,98,93,79,0.00,40.00,12,6,0,0.73
2013-5-29,74,65,59,65,61,58,97,89,62,0.00,40.00,10,4,0,0.00
2013-5-30,82,74,66,66,64,61,89,72,52,0.00,40.00,17,9,0,0.00
2013-5-31,77,72,65,66,63,59,91,73,57,0.00,40.00,17,12,0,0.00
2013-6-1,72,69,63,65,60,-100,92,77,63,0.00,40.00,17,11,0,0.12
2013-6-2,63,52,42,61,47,39,96,82,64,0.00,40.00,10,7,0,0.01
2013-6-3,66,52,37,43,40,36,96,67,36,0.00,40.00,6,3,0,0.00
2013-6-4,70,57,44,46,43,41,92,62,40,0.00,40.00,7,4,0,0.00
2013-6-5,65,59,56,49,43,37,73,56,37,0.00,40.00,10,6,0,0.01
2013-6-6,70,60,53,51,46,43,82,61,37,0.00,40.00,7,6,0,0.01
2013-6-7,76,60,47,48,43,37,92,58,25,0.00,40.00,9,5,0,0.00
2013-6-8,72,61,49,55,50,47,94,69,42,0.00,40.00,4,2,0,0.00
2013-6-9,78,66,55,59,55,51,85,67,48,0.00,40.00,9,7,0,0.00
2013-6-10,71,65,61,63,59,52,95,81,59,0.00,40.00,7,5,0,0.24
2013-6-11,77,65,54,63,59,54,97,82,59,0.00,40.00,10,3,0,0.00
2013-6-12,74,66,58,67,62,57,96,87,69,0.00,40.00,4,2,0,0.54
2013-6-13,71,65,60,64,57,53,97,76,57,0.00,40.00,10,6,0,0.52
2013-6-14,78,63,51,52,49,45,92,64,31,0.00,40.00,7,4,0,0.00
2013-6-15,73,64,51,61,55,49,94,74,58,0.00,40.00,12,4,0,0.00
2013-6-16,76,67,59,64,60,56,97,81,54,0.00,40.00,10,6,0,0.88
2013-6-17,81,68,57,61,56,52,94,69,39,0.00,40.00,7,3,0,0.12
2013-6-18,73,64,54,60,50,45,94,64,39,0.00,40.00,9,5,0,0.00
2013-6-19,74,59,45,48,43,40,91,59,29,0.00,40.00,6,3,0,0.00
2013-6-20,80,61,49,51,48,47,94,68,35,0.00,40.00,4,2,0,0.00
2013-6-22,83,78,68,67,65,61,86,65,48,0.00,40.00,11,4,0,0.00
2013-6-23,83,73,67,67,64,60,91,74,45,0.00,40.00,15,9,0,0.00
2013-6-25,77,70,67,66,65,64,96,84,69,0.00,40.00,8,4,0,0.01
2013-6-26,82,72,63,69,66,62,97,82,62,0.00,40.00,8,3,0,0.00
2013-6-27,83,73,65,67,65,62,95,78,50,0.00,40.00,8,3,0,0.00
2013-6-28,78,69,61,64,62,59,96,79,54,0.00,40.00,7,3,0,0.22
2013-6-29,71,65,60,62,60,58,96,85,66,0.00,40.00,6,3,0,0.16
2013-6-30,80,70,59,59,54,43,92,62,33,0.00,40.00,7,4,0,0.00
2013-7-1,78,66,53,51,49,46,86,56,35,0.00,40.00,11,6,0,0.00
2013-7-2,64,60,57,58,50,41,92,71,50,0.00,40.00,6,4,0,0.14
2013-7-3,75,64,56,64,59,51,97,83,67,0.00,40.00,7,4,0,0.43
2013-7-4,75,67,61,62,60,56,97,79,52,0.00,40.00,9,4,0,0.00
2013-7-5,81,70,59,63,60,58,96,73,47,0.00,40.00,8,3,0,0.00
2013-7-6,83,68,61,65,62,59,94,81,51,0.00,40.00,8,2,0,0.00
2013-7-7,81,74,68,67,66,65,91,78,61,0.00,40.00,10,5,0,0.00
2013-7-8,74,72,70,69,68,67,91,87,82,0.00,40.00,10,5,0,0.06
2013-7-9,82,71,65,71,67,64,97,87,60,0.00,40.00,7,3,0,0.05
2013-7-10,76,71,61,71,58,-100,95,70,48,0.00,40.00,9,6,0,0.00
2013-7-11,82,68,54,59,54,49,96,66,32,0.00,40.00,8,4,0,0.00
2013-7-12,83,68,55,58,55,49,95,67,31,0.00,40.00,4,3,0,0.00
2013-7-13,84,71,57,61,57,54,95,66,36,0.00,40.00,5,3,0,0.00
2013-7-14,88,75,61,67,62,57,89,65,43,0.00,40.00,5,3,0,0.00
2013-7-15,94,79,67,71,67,65,94,70,43,0.00,40.00,5,2,0,0.00
2013-7-16,88,80,71,72,70,69,95,73,53,0.00,40.00,10,4,0,0.00
2013-7-17,91,80,70,73,70,68,95,73,48,0.00,40.00,10,4,0,0.00
2013-7-18,90,83,72,72,70,68,94,66,47,0.00,40.00,13,7,0,0.00
2013-7-19,90,83,79,72,70,67,76,64,49,0.00,40.00,17,10,0,0.00
2013-7-20,82,73,63,67,56,-100,91,60,35,0.00,40.00,8,3,0,0.00
2013-7-21,81,69,58,61,52,47,69,56,36,0.00,40.00,4,2,0,0.00
2013-7-22,81,72,63,65,62,59,94,73,51,0.00,40.00,11,5,0,0.00
2013-7-23,74,70,56,67,58,47,84,67,47,0.00,40.00,12,7,0,0.00
2013-7-24,75,61,45,50,45,42,95,60,31,0.00,40.00,6,3,0,0.00
2013-7-25,75,62,47,52,49,46,96,66,40,0.00,40.00,9,4,0,0.00
2013-7-26,70,64,59,63,57,46,94,80,52,0.00,40.00,12,6,0,0.41
2013-7-27,64,60,54,61,55,47,97,85,68,0.00,40.00,7,4,0,0.00
2013-7-28,63,56,51,54,51,48,96,84,61,0.00,40.00,7,4,0,0.25
2013-7-29,66,59,54,55,54,53,96,84,65,0.00,40.00,5,2,0,0.03
2013-7-30,77,62,46,57,52,45,97,74,42,0.00,40.00,6,2,0,0.00
2013-7-31,68,64,61,64,61,57,96,89,78,0.00,40.00,5,1,0,0.67
2013-8-1,76,67,57,62,56,49,97,72,39,0.00,40.00,7,3,0,0.00
2013-8-2,73,65,56,63,59,54,95,81,68,0.00,40.00,10,2,0,0.00
2013-8-3,75,65,52,61,53,49,97,70,40,0.00,40.00,8,3,0,0.00
2013-8-4,73,62,52,54,51,44,95,69,38,0.00,40.00,7,3,0,0.00
2013-8-5,69,58,46,58,51,45,97,79,52,0.00,40.00,9,2,0,0.00
2013-8-6,73,67,63,66,63,58,93,85,75,0.00,40.00,9,5,0,0.00
2013-8-7,78,69,61,67,63,59,95,82,61,0.00,40.00,8,4,0,0.35
2013-8-8,78,66,53,59,52,48,94,65,35,0.00,40.00,4,2,0,0.00
2013-8-9,76,65,50,60,55,49,96,73,51,0.00,40.00,8,3,0,0.00
2013-8-10,75,65,52,59,53,51,96,68,43,0.00,40.00,5,2,0,0.00
2013-8-11,72,63,53,59,56,51,96,77,53,0.00,40.00,5,2,0,0.00
2013-8-12,76,67,60,63,60,55,92,78,60,0.00,40.00,8,2,0,0.00
2013-8-13,67,58,52,56,45,-100,84,63,40,0.00,40.00,10,7,0,0.01
2013-8-14,69,56,44,49,45,42,94,69,40,0.00,40.00,6,3,0,0.00
2013-8-15,75,55,43,56,38,-100,96,67,34,0.00,40.00,6,3,0,0.00
2013-8-16,81,66,49,58,46,-100,97,60,31,0.00,40.00,4,2,0,0.00
2013-8-17,81,65,50,58,50,-100,97,66,29,0.00,40.00,5,2,0,0.00
2013-8-18,81,66,51,57,52,49,97,67,33,0.00,40.00,5,2,0,0.00
2013-8-19,79,61,49,61,47,-100,97,72,42,0.00,40.00,10,3,0,0.00
2013-8-20,82,69,56,65,60,55,95,73,49,0.00,40.00,11,5,0,0.00
2013-8-21,84,74,62,66,63,59,95,71,48,0.00,40.00,13,7,0,0.10
2013-8-22,76,69,63,67,65,62,96,87,73,0.00,40.00,11,3,0,0.22
2013-8-23,83,67,51,58,51,47,95,62,29,0.00,40.00,5,2,0,0.00
2013-8-24,81,65,53,59,52,-100,97,69,34,0.00,40.00,8,3,0,0.00
2013-8-25,82,72,59,64,60,56,88,68,51,0.00,40.00,14,8,0,0.00
2013-8-26,82,76,72,69,66,65,79,72,59,0.00,40.00,10,6,0,0.00
2013-8-27,82,75,70,72,70,69,96,86,70,0.00,40.00,10,5,0,0.23
2013-8-28,87,81,74,70,69,67,89,68,52,0.00,40.00,5,3,0,0.01
2013-8-29,86,76,65,69,66,62,96,74,44,0.00,40.00,4,1,0,0.00
2013-8-30,83,72,65,72,67,64,96,85,62,0.00,40.00,14,5,0,0.01
2013-8-31,80,70,63,65,61,-100,96,77,54,0.00,40.00,4,2,0,0.00
2013-9-1,81,68,59,67,63,58,97,84,57,0.00,40.00,8,2,0,0.01
2013-9-2,70,62,58,67,56,51,93,79,65,0.00,40.00,9,6,0,0.00
2013-9-3,71,62,51,53,51,48,91,71,48,0.00,40.00,6,3,0,0.00
2013-9-4,77,64,50,61,56,49,97,77,57,0.00,40.00,7,4,0,0.00
2013-9-5,73,60,45,56,47,40,95,67,30,0.00,40.00,5,2,0,0.01
2013-9-6,76,60,45,54,47,41,95,66,28,0.00,40.00,9,4,0,0.00
2013-9-7,77,68,61,67,60,-100,94,79,65,0.00,40.00,9,3,0,0.06
2013-9-8,75,67,61,65,58,52,96,75,47,0.00,40.00,6,4,0,0.00
2013-9-9,81,67,58,69,61,51,97,81,65,0.00,40.00,9,4,0,0.33
2013-9-10,87,80,73,70,66,63,87,65,44,0.00,40.00,13,8,0,0.02
2013-9-11,79,73,66,66,64,62,93,75,57,0.00,40.00,7,4,0,0.00
2013-9-12,73,64,55,64,56,47,96,76,52,0.00,40.00,9,4,0,0.00
2013-9-13,65,55,48,46,41,35,88,64,33,0.00,40.00,8,6,0,0.00
2013-9-14,65,50,36,50,40,-100,97,74,36,0.00,40.00,10,3,0,0.00
2013-9-15,59,54,51,55,50,45,96,84,70,0.00,40.00,7,2,0,0.00
2013-9-16,63,53,44,53,45,42,96,77,45,0.00,40.00,6,4,0,0.00
2013-9-17,65,51,36,48,42,35,96,75,40,0.00,40.00,5,2,0,0.00
2013-9-18,65,49,47,56,47,45,94,92,73,0.00,40.00,1,0,0,0.00
2013-9-19,72,67,63,67,63,55,97,85,69,0.00,40.00,11,5,0,0.00
2013-9-20,70,68,62,68,64,58,94,88,80,0.00,40.00,11,7,0,0.00
2013-9-21,61,56,52,57,48,-100,91,78,62,0.00,40.00,8,4,0,0.00
2013-9-22,54,50,43,47,42,40,90,74,60,0.00,40.00,6,3,0,0.00
2013-9-23,63,48,36,46,41,35,97,78,51,0.00,40.00,6,2,0,0.00
2013-9-24,67,52,41,50,45,39,95,78,49,0.00,40.00,5,2,0,0.00
2013-9-25,71,55,44,51,47,42,96,78,36,0.00,40.00,4,2,0,0.00
2013-9-26,75,57,45,54,48,43,97,76,38,0.00,40.00,3,2,0,0.00
2013-9-27,76,60,45,55,50,44,97,72,38,0.00,40.00,6,2,0,0.00
2013-9-28,76,63,51,56,51,-100,96,69,42,0.00,40.00,15,5,0,0.00
2013-9-29,70,62,51,59,52,46,97,72,43,0.00,40.00,11,5,0,0.47
2013-9-30,68,55,42,52,47,41,97,78,46,0.00,40.00,7,2,0,0.00
2013-10-1,68,68,67,61,61,61,79,78,77,0.00,40.00,11,8,0,0.00
2013-10-2,76,62,48,60,49,37,97,69,25,0.00,40.00,3,1,0,0.00
2013-10-3,74,60,48,66,55,44,93,82,72,0.00,40.00,11,4,0,0.00
2013-10-4,73,67,63,66,64,62,96,91,76,0.00,40.00,8,2,0,0.49
2013-10-5,68,64,60,65,62,59,96,93,85,0.00,40.00,4,2,0,0.07
2013-10-6,66,59,46,65,56,45,95,91,70,0.00,40.00,9,4,0,0.26
2013-10-7,59,52,45,50,47,43,95,84,58,0.00,40.00,10,5,0,0.10
2013-10-8,69,52,41,49,44,40,96,79,48,0.00,40.00,10,4,0,0.00
2013-10-9,69,61,47,49,47,46,92,63,44,0.00,40.00,7,3,0,0.00
2013-10-10,71,54,42,49,45,41,96,75,36,0.00,40.00,5,2,0,0.00
2013-10-11,70,54,42,47,44,40,94,72,33,0.00,40.00,5,2,0,0.00
2013-10-12,73,59,48,60,49,-100,96,74,51,0.00,40.00,13,5,0,0.39
2013-10-13,60,51,42,57,45,40,96,81,53,0.00,40.00,5,3,0,0.01
2013-10-14,62,47,35,44,38,34,97,75,36,0.00,40.00,5,2,0,0.00
2013-10-15,63,52,43,59,48,38,96,86,71,0.00,40.00,10,5,0,0.33
2013-10-16,60,52,49,57,48,45,95,88,82,0.00,40.00,8,5,0,0.01
2013-10-17,49,46,37,47,44,35,95,93,87,0.00,40.00,6,2,0,0.36
2013-10-18,56,44,34,48,40,33,97,85,61,0.00,40.00,10,4,0,0.02
2013-10-19,51,44,38,42,36,-100,94,77,43,0.00,40.00,9,3,0,0.00
2013-10-20,52,44,35,47,38,34,97,80,53,0.00,40.00,8,4,0,0.06
2013-10-21,50,45,38,47,37,25,94,75,59,0.00,40.00,7,5,0,0.00
2013-10-22,45,40,34,32,29,23,87,65,53,0.00,40.00,6,4,0,0.00
2013-10-23,43,36,29,35,29,23,96,79,47,0.00,40.00,7,3,0,0.00
2013-10-24,44,35,28,36,30,26,96,84,57,0.00,40.00,7,3,0,0.07
2013-10-25,48,38,28,32,29,25,96,72,48,0.00,40.00,17,5,0,0.00
2013-10-26,51,46,38,38,31,-100,68,58,48,0.00,40.00,21,11,0,0.06
2013-10-27,48,39,31,34,30,27,91,71,51,0.00,40.00,13,5,0,0.00
2013-10-28,45,40,32,36,30,-100,95,73,58,0.00,40.00,7,4,0,0.00
2013-10-29,43,38,34,33,30,27,85,74,65,0.00,40.00,4,3,0,0.00
2013-10-30,59,44,32,51,40,31,96,85,66,0.00,40.00,8,2,0,0.01
2013-10-31,59,57,55,58,56,53,97,95,91,0.00,40.00,11,6,0,1.04
2013-11-1,54,47,44,53,46,42,97,94,91,0.00,40.00,11,8,0,0.17
2013-11-2,47,42,38,41,34,-100,95,76,67,0.00,40.00,6,4,0,0.00
2013-11-3,46,42,38,34,32,31,80,67,57,0.00,40.00,6,4,0,0.00
2013-11-4,50,43,37,36,32,30,81,64,47,0.00,40.00,12,8,0,0.00
2013-11-5,56,52,48,47,45,37,85,77,67,0.00,40.00,11,7,0,0.00
2013-11-6,54,49,39,52,46,37,96,90,70,0.00,40.00,18,12,0,0.92
2013-11-7,41,37,33,35,26,22,87,66,53,0.00,40.00,7,4,0,0.01
2013-11-8,42,36,30,29,25,22,79,64,48,0.00,40.00,9,4,0,0.00
2013-11-9,49,45,39,40,33,-100,72,66,58,0.00,40.00,17,10,0,0.01
2013-11-10,45,39,29,33,29,26,89,67,52,0.00,40.00,10,5,0,0.00
2013-11-11,43,34,27,36,28,19,94,80,67,0.00,40.00,10,6,0,0.29
2013-11-12,33,27,20,23,18,15,83,67,48,0.00,40.00,10,5,0,0.00
2013-11-13,37,22,17,23,18,15,93,81,50,0.00,40.00,14,4,0,0.00
2013-11-14,45,43,39,32,30,28,64,60,57,0.00,40.00,16,12,0,0.00
2013-11-15,49,43,36,35,33,30,82,67,55,0.00,40.00,13,8,0,0.00
2013-11-16,53,45,36,50,38,-100,92,81,76,0.00,40.00,17,9,0,0.19
2013-11-17,60,58,54,57,55,52,94,91,88,0.00,40.00,20,15,0,0.20
2013-11-19,44,36,29,23,22,21,77,58,41,0.00,40.00,3,2,0,0.00
2013-11-20,43,35,29,27,24,22,76,63,47,0.00,40.00,10,5,0,0.00
2013-11-21,46,40,36,41,37,28,95,89,66,0.00,40.00,6,2,0,0.10
2013-11-22,42,34,23,41,30,20,96,84,66,0.00,40.00,10,5,0,0.00
2013-11-23,24,20,16,21,9,-100,93,67,58,0.00,40.00,14,9,0,0.00
2013-11-24,22,19,16,13,11,7,87,71,58,0.00,40.00,9,5,0,0.00
2013-11-25,31,28,21,27,16,13,96,62,50,0.00,40.00,17,13,0,0.00
2013-11-27,28,28,28,14,14,14,53,53,53,0.00,40.00,8,8,0,0.00
2013-12-4,50,45,41,49,44,41,97,97,97,0.00,40.00,12,7,0,0.00
2013-12-5,52,36,26,48,28,17,83,71,61,0.00,40.00,15,10,0,0.00
2013-12-6,24,20,19,14,12,11,72,70,67,0.00,40.00,7,5,0,0.00
2013-12-7,18,15,9,13,8,5,81,72,61,0.00,40.00,6,4,0,0.00
2013-12-8,19,15,8,15,10,5,91,81,64,0.00,40.00,5,3,0,0.00
2013-12-9,23,21,16,21,16,5,94,83,62,0.00,40.00,14,6,0,0.00
2013-12-11,15,14,12,8,6,4,73,71,69,0.00,40.00,7,6,0,0.00
2013-12-12,19,17,16,16,14,12,89,86,85,0.00,40.00,10,6,0,0.00
2013-12-13,26,23,21,17,15,13,83,73,61,0.00,40.00,5,3,0,0.01
2013-12-14,19,17,13,17,14,9,91,88,79,0.00,40.00,7,6,0,0.00
2013-12-15,18,16,13,17,13,9,92,87,82,0.00,40.00,6,3,0,0.00
2013-12-16,21,15,9,12,10,6,88,79,65,0.00,40.00,8,4,0,0.00
2013-12-17,27,22,16,26,20,13,95,93,90,0.00,40.00,8,5,0,0.00
2013-12-18,27,25,22,24,19,12,94,79,59,0.00,40.00,11,6,0,0.01
2013-12-19,35,32,27,29,27,24,88,81,74,0.00,40.00,13,6,0,0.00
2013-12-28,42,40,37,33,32,32,83,73,69,0.00,40.00,13,11,0,0.00
2013-12-29,38,29,18,32,23,10,87,79,70,0.00,40.00,10,8,0,0.00
2013-12-30,16,13,11,10,7,4,86,76,69,0.00,40.00,6,2,0,0.00
2013-12-31,13,12,10,10,7,5,86,81,73,0.00,40.00,5,3,0,0.00
2014-1-1,14,9,4,3,1,0,86,69,53,0.00,40.00,5,3,0,0.00
2014-1-2,12,8,-2,3,0,-6,82,68,57,0.00,40.00,7,5,0,0.00